星链-2006 (STARLINK-2006 )

导读 | 星芒AI

STARLINK-2006 是 SpaceX 于 2020 年发射的一组星链(Starlink)卫星,属于其构建全球宽带互联网服务的低轨卫星星座计划的一部分。该批次卫星旨在提供更快速、低延迟的互联网连接,主要面向偏远地区用户。这些卫星采用先进推进系统和激光通信技术,以提高网络效率并减少空间碎片风险。星链计划最终目标是部署数万颗卫星,实现全球覆盖。

基本信息
目录编号:
47601
目录名称:
STARLINK-2006
国际标识:
2021-009BF
轨道中心:
EARTH
卫星名称:
星链-2006
卫星全名:
星链-2006 (STARLINK-2006 )
卫星状态:
已陨落 最后检测时间 2025-02-22
发射日期:
2021-02-04 UTC
国别 :
美国 (US)
星等 :
--
轨道信息
数据来源 国际轨道数据
星历时间: 2025-02-22T07:22:28+0800
轨道信息已过期249天
半长轴: 6541.948km
偏心率: 0.0006485
轨道倾角: 53.033°
近地点辐角 279.779°
升交点赤经 230.064°
平近点角 223.347°
近地点: 159.57km
远地点: 168.056km
周期: 87.765分钟
每日圈数: 16.407492
详细信息
固有亮度:
5
最大亮度:
2.5
卫星平台:
Starlink V1.0
覆盖范围:
全球
运营商:
太空探索技术公司
运营商所在国:
美国
制造商(研发单位):
太空探索技术公司
制造商所在国:
美国
使用方式:
暂无
卫星简介
星链(Starlink)计划是由太空探索技术公司(SpaceX)提出的一个巨型低轨卫星互联网星座项目,计划在2019年至2024年间在太空搭建由约1.2万颗卫星组成的“星链”网络,其中1584颗将部署在地球上空550千米处的近地轨道,并从2020年开始工作。该卫星仍在工作。